Powrót do katalogu

COSMOS 2251 DEB

AktywnyLEO
NORAD 35469·DEBRIS·🇷🇺 Russia

Wystrzelony Jun 16, 1993 z Plesetsk Cosmodrome

Loading…

Następne Przeloty (najbliższe 24 godziny)

TLE

ŚwieżeSource: Space-Track

Epoka: Sep 13, 2026, 06:20 UTC

1 35469U 93036ALP 26256.26424524  .00000270  00000-0  74639-4 0  9990
2 35469  74.0151 227.7548 0077778 314.3440  45.1362 14.50021949920903

Śledź COSMOS 2251 DEB w czasie rzeczywistym z AllMySat

Download on the App Store